STARLINK-1213 (45400 NORAD) Tracking and Keplerian Element Data

This shows tracking and keplerian element data for the satellite.

Feedback or suggestion? Click here.




ElementValue
Catalog45400
NameSTARLINK-1213
Epoch Orbit1783
Epoch Day190.25001157
Epoch Year2020
RAAN71.2575
Inclination52.9978
Eccentricity0.0001351
Argument of Perigee63.9237
Mean Anonmoly331.8762
Mean Motion15.12156888
Decay Rate-0.01096005
L11 45400U 20019AS 20190.25001157 -.01096005 00000-0 -67967-1 0 9997
L22 45400 52.9978 71.2575 0001351 63.9237 331.8762 15.12156888 17836

Live tracking and technical data element details for STARLINK-1213 (NORAD 45400). STARLINK-1213 can be tracked NOW for your location showing map with azimuth and elevation plus other details from your city location.

Track the satellite on the map from your city or location and see movement details for azimuth, elevation, latitude, longitude, range, height, and movement on the map or in text.







IsCatalogInMostPopularTable: catalog: 45400, numindb: 24
Update: records affected: 1



GetName: 45400 STARLINK-1213

Hit Count: updated at: Thu, 09 Jul 2020 02:03:14 GMT